Date,TemperatureHighF,TemperatureAvgF,TemperatureLowF,DewpointHighF,DewpointAvgF,DewpointLowF,HumidityHigh,HumidityAvg,HumidityLow,PressureMaxIn,PressureMinIn,WindSpeedMaxMPH,WindSpeedAvgMPH,GustSpeedMaxMPH,PrecipitationSumIn
2013-3-1,36.5,33.4,29.9,23.9,21.4,18.6,69,61,51,27.92,27.80,0,0,0,0.00
2013-3-2,32.1,28.7,26.9,20.0,16.9,13.0,68,61,55,27.91,27.83,0,0,0,0.00
2013-3-3,39.9,28.4,22.9,14.7,11.6,8.7,62,50,32,27.93,27.83,0,0,0,0.00
2013-3-4,45.1,31.8,20.8,8.9,4.7,-0.3,56,35,15,28.06,27.91,0,0,0,0.00
2013-3-5,42.6,36.8,28.7,31.4,18.2,-2.9,99,53,18,28.07,27.73,0,0,0,0.00
2013-3-6,28.7,27.9,27.6,28.4,27.7,27.4,99,99,99,27.72,27.60,0,0,0,0.00
2013-3-7,27.8,27.8,27.8,27.6,27.6,27.6,99,99,99,27.61,27.61,0,0,0,0.00
2013-3-8,27.8,27.8,27.8,27.6,27.6,27.6,99,99,99,27.61,27.61,0,0,0,0.00
2013-3-9,27.8,27.8,27.8,27.6,27.6,27.6,99,99,99,27.61,27.61,0,0,0,0.00
2013-3-10,27.8,27.8,27.8,27.6,27.6,27.6,99,99,99,27.61,27.61,0,0,0,0.00
2013-3-11,27.8,27.8,27.8,27.6,27.6,27.6,99,99,99,27.61,27.61,0,0,0,0.00
2013-3-12,27.8,27.8,27.8,27.6,27.6,27.6,99,99,99,27.61,27.61,0,0,0,0.00
2013-3-13,42.9,30.2,27.7,27.6,22.6,8.0,99,78,33,28.10,27.61,0,0,0,0.00
2013-3-14,44.8,33.1,24.3,13.3,9.2,5.1,56,38,20,28.16,28.06,0,0,0,0.00
2013-3-15,54.6,42.3,30.6,29.1,18.1,8.2,45,37,33,28.13,27.88,0,0,0,0.00
2013-3-16,64.6,53.2,41.7,50.1,39.6,28.0,95,61,39,27.92,27.70,24,3,24,0.25
2013-3-17,41.7,32.9,28.5,39.0,32.3,28.4,100,98,88,28.24,27.92,11,11,0,0.14
2013-3-18,30.7,28.3,27.2,30.5,28.2,27.1,100,99,99,28.25,27.89,11,11,0,0.00
2013-3-19,56.7,44.0,29.3,44.3,19.9,-7.3,99,51,10,28.00,27.79,11,11,0,0.03
2013-3-20,49.3,40.0,32.3,8.5,3.0,-4.5,30,21,15,28.04,27.80,11,11,0,0.00
2013-3-21,40.7,28.3,22.1,24.6,9.5,1.0,78,47,22,27.93,27.78,11,11,0,0.00
2013-3-22,45.8,31.3,20.5,12.8,8.3,4.4,57,39,24,28.01,27.92,11,11,0,0.00
2013-3-23,52.0,40.6,33.8,17.9,11.4,7.4,36,30,23,28.06,27.94,11,11,0,0.00
2013-3-24,42.1,30.8,26.7,27.3,21.1,12.3,99,71,29,28.00,27.63,11,11,0,0.00
2013-3-25,34.5,29.8,26.5,32.8,26.9,19.6,99,90,58,27.75,27.55,11,11,0,0.22
2013-3-26,41.9,35.5,32.2,26.3,21.8,18.9,67,58,41,28.07,27.74,11,11,0,0.14
2013-3-27,41.5,35.5,30.7,24.6,20.1,15.5,71,54,38,28.19,28.06,11,11,0,0.00
2013-3-28,44.0,37.1,32.3,21.9,19.5,16.3,59,49,34,28.27,28.13,11,11,0,0.00
2013-3-29,52.1,43.4,36.8,25.4,20.5,16.9,54,41,25,28.30,28.18,11,11,0,0.00
2013-3-30,58.6,48.9,41.7,23.9,21.6,17.5,46,35,25,28.27,28.13,11,11,0,0.00
2013-3-31,52.0,46.2,40.5,49.9,38.7,22.0,99,79,32,28.13,27.84,11,11,0,0.07